Location: Orange Harbor Mobile Home Park
(26.6923°N, 81.7937°W)
Time: 08:17:23
(UTC+00:00)

deb Chang Zheng 4 - Pass Details

Date: 19 September 2020
Orbit: 602 x 626 km, 98.6° (Epoch: 29 October)

Event Time Altitude Azimuth Distance (km) Brightness Sun altitude
Rises 09:45:36 0° 12° (NNE) 2,877 7.3 -20.5°
Reaches altitude 10° 09:47:47 10° 12° (NNE) 1,966 6.4 -20.1°
Maximum altitude 09:52:03 89° 305° (NW) 611 3.4 -19.1°
Enters shadow 09:56:12 11° 194° (SSW) 1,909 5.8 -18.2°
